Weather History for KIOW - April, 2013

Change the Weather History Date:

Thursday, April 11, 2013

  Actual Average Record
Temperature  
Mean Temperature 41 °F 50 °F  
Max Temperature 46 °F 60 °F 82 °F (1968)
Min Temperature 36 °F 39 °F 19 °F (1973)
Degree Days  
Heating Degree Days 24 16  
Month to date heating degree days 219 191  
Since 1 July heating degree days 5959 5958  
Cooling Degree Days 0 0  
Month to date cooling degree days 0 0  
Year to date cooling degree days 0 0  
Moisture  
Dew Point 39 °F    
Average Humidity 88    
Maximum Humidity 100    
Minimum Humidity 76    
Precipitation  
Precipitation 0.17 in 0.10 in 1.88 in (1981)
Month to date precipitation 3.03 0.96  
Year to date precipitation 7.91 5.34  
Sea Level Pressure  
Sea Level Pressure 29.63 in    
Wind  
Wind Speed 8 mph (SW)    
Max Wind Speed 23 mph    
Max Gust Speed 28 mph    
Visibility 8 miles    
Events Rain    
T = Trace of Precipitation, MM = Missing Value Source: NWS Daily Summary

Daily Weather History Graph

Daily Weather History Graph

Search for Another Location

Airport or City:

Trip Planner

Search our weather history database for the weather conditions in past years. The results will help you decide how hot, cold, wet, or windy it might be!

Date:

Astronomy

Apr. 11, 2013 Rise Set
Actual Time 6:32 AM CDT 7:42 PM CDT
Civil Twilight 6:03 AM CDT 8:11 PM CDT
Nautical Twilight 5:29 AM CDT 8:45 PM CDT
Astronomical Twilight 4:53 AM CDT 9:21 PM CDT
Moon 7:02 AM CDT (4/11) 9:19 PM CDT (4/11)
Length of Visible Light 14h 07m
Length of Day
13h 10m
New Moon, 2% of the Moon is Illuminated
Apr 11
New Moon
Apr 18
First Quarter
Apr 25
Full
May 2
Last Quarter
May 9
New

Hourly Weather History & Observations

Time (CDT) Temp. Windchill Dew Point Humidity Pressure Visibility Wind Dir Wind Speed Gust Speed Precip Events Conditions
12:52 AM 39.9 °F 31.4 °F 37.0 °F 89% 29.71 in 10.0 mi East 16.1 mph 20.7 mph N/A   Overcast
1:14 AM 39.2 °F 29.8 °F 37.4 °F 93% 29.70 in 7.0 mi East 18.4 mph 25.3 mph 0.01 in Rain Light Rain
1:52 AM 39.9 °F 32.5 °F 37.9 °F 93% 29.70 in 5.0 mi East 12.7 mph 20.7 mph 0.03 in Rain Light Rain
2:52 AM 39.9 °F 32.9 °F 37.9 °F 93% 29.66 in 4.0 mi East 11.5 mph - 0.03 in Rain Light Rain
3:15 AM 39.2 °F 33.6 °F 39.2 °F 100% 29.66 in 2.5 mi ESE 8.1 mph - 0.02 in Rain Light Rain
3:22 AM 39.2 °F 32.5 °F 39.2 °F 100% 29.66 in 4.0 mi ESE 10.4 mph - 0.02 in Rain Light Rain
3:52 AM 39.9 °F 34.5 °F 39.0 °F 97% 29.67 in 4.0 mi East 8.1 mph - 0.03 in   Overcast
4:01 AM 39.2 °F 35.9 °F 39.2 °F 100% 29.67 in 3.0 mi East 4.6 mph - N/A   Overcast
4:52 AM 41.0 °F - 39.9 °F 96% 29.68 in 4.0 mi Calm Calm - 0.01 in   Overcast
5:37 AM 41.0 °F 36.4 °F 39.2 °F 93% 29.63 in 10.0 mi NE 6.9 mph - 0.01 in   Overcast
5:52 AM 41.0 °F 38.0 °F 39.0 °F 93% 29.65 in 10.0 mi ENE 4.6 mph - 0.01 in   Overcast
6:52 AM 41.0 °F 38.0 °F 39.9 °F 96% 29.64 in 5.0 mi NNE 4.6 mph - 0.01 in   Overcast
7:22 AM 41.0 °F - 39.2 °F 93% 29.66 in 3.0 mi Calm Calm - N/A   Overcast
7:52 AM 41.0 °F - 39.9 °F 96% 29.65 in 4.0 mi Calm Calm - 0.00 in   Overcast
8:52 AM 42.1 °F 40.2 °F 41.0 °F 96% 29.66 in 6.0 mi South 3.5 mph - N/A   Overcast
9:38 AM 42.8 °F 40.1 °F 41.0 °F 93% 29.63 in 10.0 mi SSW 4.6 mph - N/A   Overcast
10:52 AM 44.1 °F 39.5 °F 41.0 °F 89% 29.64 in 10.0 mi West 8.1 mph - N/A   Overcast
11:13 AM 44.6 °F 41.4 °F 41.0 °F 87% 29.63 in 10.0 mi West 5.8 mph - N/A   Overcast
11:43 AM 44.6 °F 42.2 °F 39.2 °F 81% 29.62 in 10.0 mi West 4.6 mph - N/A   Overcast
11:52 AM 45.0 °F 42.6 °F 39.9 °F 82% 29.63 in 10.0 mi WSW 4.6 mph - N/A   Overcast
12:52 PM 45.0 °F - 41.0 °F 86% 29.62 in 10.0 mi Calm Calm - N/A   Overcast
1:02 PM 46.4 °F - 41.0 °F 81% 29.60 in 10.0 mi Calm Calm - N/A   Overcast
1:12 PM 46.4 °F - 42.8 °F 87% 29.61 in 10.0 mi Calm Calm - N/A   Overcast
1:22 PM 46.4 °F - 41.0 °F 81% 29.60 in 10.0 mi Calm Calm - N/A   Overcast
1:29 PM 46.4 °F - 41.0 °F 81% 29.60 in 10.0 mi Calm Calm - N/A   Overcast
1:52 PM 45.0 °F - 41.0 °F 86% 29.61 in 10.0 mi Calm Calm - N/A   Overcast
2:19 PM 44.6 °F - 42.8 °F 93% 29.60 in 2.5 mi Calm Calm - 0.02 in Rain Light Rain
2:24 PM 44.6 °F - 42.8 °F 93% 29.60 in 3.0 mi Calm Calm - 0.02 in Rain Light Rain
2:52 PM 45.0 °F 40.6 °F 42.1 °F 90% 29.61 in 5.0 mi SW 8.1 mph - 0.04 in Rain Light Rain
3:00 PM 44.6 °F 40.7 °F 42.8 °F 93% 29.60 in 8.0 mi SW 6.9 mph - 0.00 in   Overcast
3:08 PM 44.6 °F 37.4 °F 42.8 °F 93% 29.60 in 10.0 mi WSW 16.1 mph 19.6 mph 0.00 in Rain Light Rain
3:11 PM 44.6 °F 38.1 °F 42.8 °F 93% 29.60 in 8.0 mi WSW 13.8 mph 19.6 mph 0.00 in Rain Light Rain
3:13 PM 44.6 °F 38.4 °F 42.8 °F 93% 29.60 in 7.0 mi WSW 12.7 mph - 0.00 in   Overcast
3:52 PM 45.0 °F 37.6 °F 42.1 °F 90% 29.61 in 10.0 mi WSW 17.3 mph 20.7 mph 0.00 in   Overcast
4:17 PM 42.8 °F 36.2 °F 39.2 °F 87% 29.61 in 6.0 mi WSW 12.7 mph - 0.00 in Rain Light Rain
4:24 PM 42.8 °F 36.6 °F 39.2 °F 87% 29.61 in 4.0 mi WSW 11.5 mph - 0.00 in Rain Light Rain
4:52 PM 42.1 °F 34.2 °F 42.1 °F 100% 29.63 in 6.0 mi WSW 16.1 mph 25.3 mph 0.01 in Rain Light Rain
5:00 PM 42.8 °F 34.8 °F 42.8 °F 100% 29.61 in 4.0 mi SW 17.3 mph 25.3 mph 0.00 in Rain Light Rain
5:33 PM 39.2 °F 30.8 °F 39.2 °F 100% 29.60 in 10.0 mi WSW 15.0 mph 25.3 mph 0.00 in   Overcast
5:43 PM 39.2 °F 30.2 °F 39.2 °F 100% 29.60 in 8.0 mi WSW 17.3 mph 23.0 mph 0.00 in   Overcast
5:52 PM 39.0 °F 30.6 °F 39.0 °F 100% 29.63 in 9.0 mi WSW 15.0 mph 23.0 mph 0.00 in   Overcast
6:52 PM 39.9 °F 32.9 °F 39.0 °F 97% 29.63 in 10.0 mi WSW 11.5 mph - N/A   Overcast
7:52 PM 37.9 °F 30.5 °F 33.1 °F 83% 29.65 in 10.0 mi WSW 11.5 mph 20.7 mph N/A   Overcast
8:12 PM 37.4 °F 29.8 °F 33.8 °F 87% 29.63 in 10.0 mi SW 11.5 mph - N/A   Overcast
8:52 PM 37.0 °F 29.3 °F 30.9 °F 79% 29.64 in 10.0 mi WSW 11.5 mph 20.7 mph N/A   Overcast
9:52 PM 37.0 °F 29.8 °F 30.9 °F 79% 29.65 in 10.0 mi WSW 10.4 mph - N/A   Overcast
10:36 PM 37.4 °F 30.3 °F 30.2 °F 75% 29.63 in 10.0 mi SW 10.4 mph - N/A   Overcast
10:52 PM 37.0 °F 31.0 °F 30.9 °F 79% 29.65 in 10.0 mi SW 8.1 mph - N/A   Overcast
11:11 PM 37.4 °F 30.8 °F 30.2 °F 75% 29.64 in 10.0 mi SW 9.2 mph - N/A   Overcast
11:52 PM 37.0 °F 31.6 °F 30.9 °F 79% 29.65 in 10.0 mi SW 6.9 mph - N/A   Overcast